Precipitable_Water
1.49 1.46 1.46 1.42 1.40 1.36 1.33 1.28 1.16 1.11 1.09 1.08 1.03 1.02 1.03 1.05 1.06 1.09 1.17 1.16 1.20 1.21 1.22 1.24 1.27 1.30 1.31 1.32 1.31 1.32 1.34 1.36 1.42 1.44 1.43 1.40 1.42 1.41 1.42 1.39 1.35 1.36 1.38 1.40 1.46 1.47 1.48 1.47 1.48 1.52 1.56 1.50 1.51 1.52 1.52 1.55 1.53 1.48 1.44 1.38 1.31 1.33 1.28 1.21 1.09 1.08 1.25 1.37 1.30 1.29 1.36 1.36 1.34 1.41 1.34 1.38 1.40 1.40 1.37 1.36 1.35 1.31 1.31 1.39 1.50
1.48 1.49 1.48 1.46 1.42 1.41 1.40 1.38 1.31 1.20 1.09 1.07 1.03 1.01 1.01 1.01 1.03 1.06 1.05 1.10 1.15 1.15 1.16 1.18 1.20 1.22 1.24 1.26 1.29 1.31 1.33 1.35 1.38 1.39 1.37 1.36 1.36 1.39 1.37 1.34 1.30 1.31 1.34 1.31 1.35 1.37 1.39 1.37 1.38 1.43 1.48 1.44 1.45 1.44 1.48 1.49 1.49 1.45 1.44 1.37 1.32 1.33 1.38 1.25 1.20 1.13 1.06 1.28 1.28 1.36 1.31 1.38 1.23 1.41 1.30 1.28 1.31 1.32 1.29 1.30 1.34 1.33 1.28 1.35 1.44
1.53 1.54 1.51 1.48 1.46 1.46 1.46 1.43 1.40 1.32 1.19 1.10 1.03 1.01 0.99 0.98 1.02 0.99 0.99 1.02 1.09 1.10 1.11 1.12 1.14 1.17 1.16 1.18 1.22 1.25 1.28 1.31 1.35 1.35 1.34 1.33 1.32 1.34 1.34 1.32 1.28 1.27 1.27 1.27 1.29 1.33 1.30 1.29 1.31 1.36 1.40 1.34 1.35 1.36 1.41 1.43 1.48 1.45 1.42 1.42 1.34 1.35 1.40 1.37 1.26 1.14 1.09 1.13 1.26 1.20 1.27 1.32 1.25 1.26 1.34 1.35 1.35 1.34 1.27 1.26 1.26 1.29 1.32 1.36 1.39
1.56 1.54 1.52 1.50 1.51 1.50 1.47 1.46 1.43 1.39 1.29 1.20 1.09 1.03 1.00 0.98 0.99 0.96 0.97 1.00 1.01 1.04 1.08 1.09 1.11 1.11 1.10 1.11 1.13 1.14 1.19 1.24 1.28 1.29 1.27 1.27 1.28 1.31 1.33 1.33 1.32 1.30 1.29 1.29 1.31 1.30 1.27 1.25 1.27 1.31 1.33 1.28 1.28 1.29 1.33 1.35 1.36 1.38 1.39 1.42 1.38 1.35 1.41 1.41 1.37 1.25 1.19 1.06 1.18 1.20 1.25 1.22 1.29 1.37 1.38 1.36 1.30 1.28 1.28 1.27 1.31 1.26 1.26 1.34 1.39
1.60 1.56 1.53 1.51 1.51 1.49 1.46 1.46 1.42 1.39 1.34 1.30 1.21 1.14 1.08 1.03 1.00 0.95 0.96 0.95 0.97 0.98 1.01 1.06 1.06 1.05 1.03 1.04 1.06 1.07 1.10 1.16 1.17 1.18 1.19 1.20 1.21 1.24 1.28 1.30 1.30 1.29 1.29 1.29 1.29 1.29 1.27 1.23 1.23 1.27 1.27 1.21 1.24 1.25 1.27 1.27 1.31 1.31 1.30 1.32 1.30 1.32 1.35 1.36 1.35 1.34 1.23 1.14 1.15 1.28 1.30 1.28 1.32 1.32 1.35 1.23 1.23 1.25 1.31 1.27 1.23 1.23 1.24 1.30 1.37
1.65 1.59 1.56 1.51 1.50 1.47 1.47 1.46 1.42 1.39 1.38 1.36 1.32 1.28 1.22 1.14 1.06 1.01 0.97 0.94 0.94 0.94 0.93 0.95 0.97 0.96 0.98 1.00 1.02 1.03 1.07 1.10 1.09 1.08 1.09 1.12 1.13 1.14 1.15 1.16 1.17 1.17 1.19 1.22 1.24 1.25 1.22 1.21 1.20 1.19 1.17 1.13 1.15 1.21 1.25 1.24 1.27 1.26 1.25 1.27 1.27 1.27 1.25 1.28 1.31 1.29 1.25 1.20 1.17 1.14 1.26 1.21 1.23 1.28 1.32 1.29 1.19 1.13 1.17 1.28 1.30 1.31 1.24 1.21 1.29
1.66 1.61 1.58 1.54 1.51 1.48 1.47 1.45 1.45 1.43 1.42 1.40 1.40 1.37 1.32 1.26 1.19 1.10 1.05 0.98 0.94 0.92 0.93 0.91 0.91 0.90 0.91 0.94 0.94 0.95 0.97 0.99 1.01 1.02 1.04 1.07 1.07 1.07 1.07 1.09 1.09 1.10 1.10 1.09 1.12 1.16 1.18 1.19 1.19 1.18 1.12 1.11 1.11 1.13 1.17 1.19 1.19 1.20 1.23 1.25 1.29 1.25 1.21 1.21 1.23 1.20 1.19 1.15 1.16 1.17 1.14 1.22 1.20 1.13 1.30 1.33 1.27 1.23 1.13 1.13 1.15 1.34 1.32 1.22 1.19
1.68 1.63 1.60 1.57 1.53 1.51 1.50 1.50 1.50 1.50 1.50 1.49 1.46 1.42 1.39 1.35 1.30 1.25 1.19 1.09 0.99 0.93 0.91 0.91 0.92 0.92 0.91 0.91 0.91 0.93 0.93 0.92 0.93 0.96 0.98 1.01 1.02 1.02 1.03 1.03 1.03 1.05 1.05 1.06 1.06 1.07 1.09 1.12 1.13 1.16 1.15 1.14 1.13 1.15 1.17 1.14 1.17 1.12 1.18 1.20 1.22 1.20 1.17 1.17 1.16 1.14 1.10 1.09 1.06 1.05 1.11 1.12 1.16 1.21 1.27 1.25 1.17 1.22 1.29 1.19 1.08 1.12 1.20 1.25 1.26
1.71 1.66 1.63 1.58 1.55 1.56 1.57 1.58 1.58 1.57 1.56 1.53 1.49 1.45 1.41 1.39 1.37 1.33 1.28 1.20 1.15 1.07 1.01 0.95 0.91 0.90 0.91 0.92 0.92 0.94 0.92 0.90 0.91 0.90 0.90 0.93 0.96 0.96 0.98 0.99 0.98 0.99 0.99 1.00 1.01 1.01 1.02 1.04 1.05 1.08 1.13 1.12 1.14 1.15 1.17 1.19 1.15 1.09 1.12 1.13 1.11 1.10 1.10 1.11 1.10 1.07 1.05 1.02 1.00 1.06 1.03 1.02 1.05 1.05 1.05 1.08 1.08 1.10 1.27 1.28 1.21 1.25 1.25 1.19 1.24
1.75 1.68 1.62 1.59 1.61 1.63 1.64 1.63 1.61 1.60 1.58 1.53 1.50 1.48 1.46 1.43 1.39 1.35 1.32 1.29 1.25 1.20 1.14 1.09 1.02 0.94 0.89 0.89 0.91 0.92 0.92 0.92 0.89 0.87 0.89 0.90 0.91 0.92 0.94 0.95 0.95 0.95 0.94 0.92 0.93 0.96 0.96 0.97 0.99 1.00 1.01 1.04 1.07 1.09 1.12 1.15 1.16 1.14 1.12 1.15 1.09 1.05 1.03 1.01 1.00 1.00 0.97 0.93 0.93 0.95 0.92 0.93 0.99 1.04 1.01 1.07 1.17 1.24 1.24 1.27 1.18 1.26 1.25 1.20 1.21
1.78 1.71 1.63 1.63 1.64 1.65 1.65 1.64 1.63 1.60 1.57 1.55 1.54 1.52 1.49 1.47 1.44 1.40 1.37 1.35 1.32 1.29 1.24 1.17 1.11 1.07 1.00 0.93 0.89 0.89 0.88 0.87 0.85 0.85 0.86 0.88 0.92 0.93 0.91 0.91 0.92 0.92 0.90 0.87 0.83 0.85 0.90 0.94 0.94 0.96 0.96 0.96 0.98 1.01 1.05 1.08 1.10 1.11 1.12 1.14 1.15 1.10 1.02 0.97 0.95 0.96 0.94 0.91 0.93 0.93 0.90 0.90 0.95 1.02 1.01 1.09 1.18 1.19 1.22 1.28 1.24 1.23 1.16 1.05 0.96
1.79 1.75 1.70 1.69 1.68 1.66 1.65 1.64 1.62 1.61 1.60 1.57 1.55 1.55 1.54 1.52 1.47 1.44 1.41 1.38 1.37 1.37 1.31 1.24 1.19 1.15 1.10 1.05 0.99 0.94 0.90 0.86 0.83 0.82 0.82 0.83 0.86 0.89 0.91 0.89 0.89 0.89 0.87 0.84 0.83 0.82 0.83 0.87 0.91 0.94 0.94 0.93 0.94 0.98 0.98 1.00 1.04 1.06 1.08 1.09 1.10 1.12 1.12 1.04 0.95 0.92 0.92 0.87 0.86 0.89 0.90 0.89 0.95 1.02 1.02 1.09 1.16 1.22 1.26 1.27 1.25 1.19 1.14 1.10 1.08
1.85 1.79 1.77 1.74 1.70 1.68 1.67 1.66 1.64 1.63 1.61 1.60 1.59 1.59 1.56 1.53 1.49 1.46 1.42 1.42 1.43 1.40 1.35 1.32 1.27 1.24 1.18 1.11 1.06 1.03 0.99 0.94 0.90 0.87 0.85 0.84 0.84 0.86 0.88 0.88 0.86 0.85 0.85 0.83 0.82 0.83 0.84 0.84 0.85 0.90 0.90 0.90 0.93 0.95 0.99 1.00 1.00 1.03 1.06 1.08 1.09 1.08 1.07 1.08 1.08 1.01 0.99 0.93 0.85 0.81 0.81 0.84 0.86 0.92 0.99 1.06 1.22 1.13 1.20 1.20 1.22 1.22 1.19 1.12 1.11
1.96 1.88 1.85 1.80 1.76 1.72 1.70 1.70 1.68 1.67 1.68 1.67 1.66 1.63 1.60 1.54 1.51 1.50 1.50 1.50 1.47 1.43 1.40 1.36 1.35 1.32 1.28 1.23 1.17 1.14 1.10 1.06 1.02 0.98 0.95 0.93 0.92 0.91 0.91 0.90 0.90 0.88 0.87 0.87 0.86 0.85 0.85 0.84 0.82 0.82 0.87 0.90 0.92 0.93 0.95 0.97 1.01 1.04 1.04 1.06 1.06 1.07 1.08 1.08 1.07 1.06 1.05 1.00 0.95 0.86 0.89 0.96 0.87 0.90 1.01 1.10 1.03 1.01 1.07 1.10 1.21 1.19 1.17 1.14 1.23
2.04 2.04 1.97 1.92 1.89 1.84 1.80 1.76 1.73 1.73 1.74 1.73 1.70 1.67 1.64 1.61 1.59 1.56 1.54 1.50 1.48 1.45 1.43 1.40 1.39 1.39 1.36 1.33 1.28 1.23 1.20 1.18 1.14 1.10 1.07 1.04 1.01 1.00 1.00 0.98 0.96 0.95 0.94 0.93 0.91 0.89 0.89 0.89 0.86 0.82 0.84 0.88 0.91 0.91 0.94 0.96 0.99 1.02 1.04 1.04 1.06 1.07 1.08 1.08 1.07 1.07 1.05 1.04 1.01 0.98 0.99 1.04 1.05 1.07 1.11 1.18 1.13 1.13 1.17 1.16 1.19 1.22 1.25 1.30 1.25
2.03 2.05 2.03 2.02 1.97 1.93 1.85 1.78 1.74 1.79 1.81 1.83 1.80 1.73 1.70 1.68 1.65 1.65 1.62 1.59 1.58 1.55 1.54 1.51 1.45 1.42 1.41 1.38 1.33 1.27 1.25 1.24 1.22 1.19 1.16 1.13 1.12 1.11 1.08 1.04 1.00 0.98 0.97 0.96 0.95 0.94 0.94 0.92 0.89 0.85 0.84 0.85 0.87 0.90 0.94 1.00 1.01 1.00 0.99 1.02 1.05 1.08 1.07 1.10 1.13 1.14 1.12 1.10 1.08 1.05 1.05 1.08 1.10 1.11 1.16 1.20 1.23 1.24 1.25 1.27 1.25 1.17 1.11 1.03 0.94
2.06 2.06 2.06 2.06 2.04 1.99 1.95 1.88 1.80 1.73 1.74 1.78 1.78 1.76 1.76 1.72 1.72 1.76 1.70 1.66 1.60 1.57 1.53 1.51 1.51 1.49 1.47 1.44 1.38 1.33 1.30 1.32 1.30 1.27 1.24 1.22 1.21 1.17 1.13 1.09 1.06 1.01 0.97 0.97 0.97 0.96 0.95 0.94 0.92 0.88 0.87 0.86 0.86 0.89 0.93 0.98 0.99 0.98 0.98 0.99 1.03 1.04 1.01 1.10 1.13 1.11 1.09 1.09 1.10 1.07 1.05 1.05 1.07 1.09 1.12 1.16 1.18 1.23 1.20 1.09 0.98 1.05 0.99 0.88 0.90
2.00 2.02 2.02 2.06 2.08 2.07 2.02 1.96 1.92 1.91 1.87 1.78 1.77 1.76 1.84 1.87 1.87 1.84 1.75 1.70 1.66 1.64 1.61 1.59 1.58 1.57 1.54 1.50 1.47 1.40 1.37 1.40 1.40 1.36 1.33 1.31 1.28 1.22 1.18 1.13 1.08 1.05 1.01 1.01 1.00 0.97 0.95 0.93 0.95 0.93 0.89 0.87 0.88 0.91 0.94 1.00 0.98 0.98 0.99 0.97 0.97 0.96 0.96 1.03 1.10 1.09 1.05 1.07 1.06 1.04 1.03 1.02 1.03 1.06 1.10 1.13 1.17 1.22 1.14 0.95 1.02 1.11 1.00 0.95 0.85
1.92 1.97 2.02 2.07 2.11 2.12 2.11 2.04 1.98 1.97 1.96 1.92 1.81 1.76 1.84 1.86 1.94 1.99 1.93 1.84 1.77 1.75 1.72 1.65 1.63 1.62 1.60 1.57 1.55 1.49 1.45 1.45 1.46 1.42 1.39 1.36 1.33 1.29 1.24 1.17 1.10 1.05 1.01 0.97 0.99 0.98 0.96 0.95 0.94 0.95 0.94 0.91 0.90 0.93 0.97 1.01 1.00 1.00 1.00 1.00 0.95 0.92 0.93 1.02 1.04 1.03 1.04 0.98 0.96 0.98 0.97 0.97 1.01 1.04 1.06 1.11 1.15 1.19 1.21 1.16 1.21 1.14 1.02 1.00 0.98
1.90 1.98 2.04 2.09 2.13 2.14 2.15 2.10 2.05 2.01 2.00 2.02 2.00 1.91 1.85 1.89 2.00 2.03 1.98 1.97 1.85 1.81 1.78 1.72 1.64 1.61 1.61 1.59 1.55 1.52 1.46 1.45 1.47 1.44 1.42 1.40 1.37 1.34 1.31 1.21 1.09 1.02 1.00 0.96 0.92 0.94 0.95 0.94 0.95 0.94 0.93 0.93 0.93 0.94 0.97 1.01 1.02 1.04 1.07 1.03 0.97 0.90 1.02 1.07 1.09 1.08 1.06 1.03 0.99 1.01 0.97 1.01 1.05 1.07 1.08 1.11 1.12 1.17 1.21 1.25 1.27 1.25 1.14 1.07 1.06
1.63 1.83 2.00 2.04 2.09 2.13 2.18 2.15 2.08 2.06 2.08 2.05 2.03 1.97 1.92 1.86 1.90 2.07 2.07 2.05 1.97 1.89 1.84 1.75 1.66 1.60 1.60 1.59 1.55 1.53 1.49 1.43 1.47 1.47 1.45 1.43 1.41 1.37 1.33 1.25 1.17 1.10 1.04 1.00 0.95 0.90 0.91 0.91 0.93 0.95 0.95 0.95 0.95 0.95 0.98 1.02 1.06 1.10 1.11 1.06 1.04 1.07 1.16 1.12 1.12 1.12 1.08 1.05 1.02 1.02 1.03 1.04 1.05 1.07 1.08 1.10 1.11 1.14 1.19 1.24 1.29 1.32 1.25 1.13 1.07
1.43 1.49 1.69 1.87 2.01 2.08 2.11 2.14 2.12 2.09 2.09 2.08 2.05 2.04 2.09 2.02 1.92 1.86 1.99 2.07 2.06 1.93 1.88 1.80 1.69 1.62 1.61 1.61 1.58 1.54 1.53 1.49 1.48 1.49 1.47 1.44 1.42 1.40 1.35 1.28 1.25 1.20 1.12 1.06 1.01 0.95 0.92 0.92 0.92 0.94 0.97 0.99 1.00 1.01 1.03 1.06 1.10 1.14 1.12 1.11 1.14 1.16 1.15 1.17 1.18 1.18 1.14 1.07 1.03 1.01 1.00 0.98 0.98 1.00 1.04 1.08 1.11 1.15 1.17 1.21 1.25 1.30 1.31 1.28 1.20
1.36 1.39 1.45 1.59 1.77 1.93 2.01 2.00 1.99 2.07 2.08 2.06 2.03 2.01 2.03 2.01 2.03 2.02 1.95 1.94 1.89 1.88 1.82 1.80 1.73 1.65 1.65 1.66 1.65 1.59 1.55 1.52 1.49 1.49 1.48 1.46 1.44 1.41 1.37 1.33 1.33 1.33 1.21 1.09 1.03 1.00 1.01 1.01 1.00 1.01 1.02 1.03 1.04 1.06 1.08 1.12 1.15 1.13 1.09 1.10 1.13 1.16 1.19 1.21 1.19 1.17 1.13 1.08 1.04 0.99 0.99 0.99 0.98 0.98 1.01 1.05 1.14 1.22 1.25 1.28 1.31 1.32 1.34 1.37 1.40
1.29 1.31 1.32 1.34 1.51 1.66 1.76 1.84 1.89 1.98 2.05 2.07 2.03 1.99 2.00 2.00 2.00 1.99 1.96 1.92 1.81 1.79 1.90 1.91 1.80 1.73 1.70 1.72 1.70 1.62 1.57 1.54 1.52 1.49 1.51 1.49 1.48 1.44 1.40 1.38 1.38 1.35 1.30 1.19 1.15 1.14 1.10 1.09 1.07 1.06 1.05 1.04 1.05 1.08 1.11 1.15 1.14 1.11 1.10 1.09 1.11 1.16 1.20 1.19 1.18 1.16 1.12 1.08 1.02 1.00 0.99 1.02 1.04 1.03 1.05 1.12 1.19 1.29 1.34 1.39 1.40 1.43 1.44 1.43 1.46
1.18 1.19 1.23 1.27 1.33 1.47 1.58 1.63 1.69 1.80 1.93 2.01 1.95 1.90 1.90 1.95 1.93 1.98 1.97 1.92 1.91 1.94 1.96 1.92 1.84 1.78 1.74 1.69 1.64 1.62 1.61 1.58 1.55 1.53 1.52 1.53 1.52 1.49 1.45 1.43 1.42 1.41 1.34 1.28 1.26 1.23 1.20 1.18 1.15 1.12 1.08 1.07 1.08 1.10 1.13 1.13 1.13 1.11 1.10 1.09 1.11 1.15 1.15 1.16 1.16 1.15 1.08 1.02 1.00 1.02 1.04 1.06 1.09 1.12 1.20 1.25 1.29 1.36 1.39 1.41 1.44 1.48 1.51 1.52 1.51
1.11 1.11 1.10 1.18 1.22 1.28 1.40 1.46 1.51 1.57 1.67 1.82 1.90 1.93 1.92 1.94 1.89 1.88 1.92 1.92 1.94 1.96 1.96 1.96 1.90 1.81 1.73 1.70 1.65 1.62 1.63 1.62 1.56 1.56 1.55 1.56 1.55 1.53 1.51 1.50 1.48 1.46 1.41 1.34 1.34 1.34 1.32 1.27 1.22 1.17 1.13 1.11 1.11 1.09 1.07 1.08 1.10 1.11 1.11 1.12 1.13 1.11 1.11 1.13 1.15 1.12 1.04 1.04 1.04 1.02 1.05 1.14 1.18 1.22 1.29 1.32 1.25 1.22 1.29 1.32 1.34 1.37 1.41 1.40 1.38
1.18 1.12 1.07 1.06 1.12 1.18 1.26 1.38 1.43 1.46 1.53 1.64 1.71 1.77 1.85 1.88 1.89 1.87 1.86 1.89 1.95 2.00 2.02 2.02 1.97 1.89 1.76 1.70 1.68 1.67 1.64 1.60 1.57 1.57 1.59 1.57 1.57 1.58 1.58 1.55 1.55 1.54 1.47 1.40 1.39 1.38 1.37 1.33 1.27 1.23 1.21 1.19 1.16 1.14 1.12 1.14 1.13 1.10 1.08 1.09 1.08 1.08 1.09 1.10 1.10 1.09 1.09 1.09 1.08 1.08 1.13 1.21 1.30 1.29 1.25 1.24 1.19 1.23 1.32 1.33 1.32 1.33 1.37 1.39 1.35
1.20 1.17 1.09 1.06 1.04 1.09 1.11 1.25 1.37 1.41 1.43 1.48 1.56 1.62 1.68 1.78 1.81 1.80 1.84 1.90 1.93 1.93 1.95 1.94 1.91 1.88 1.81 1.76 1.71 1.68 1.64 1.60 1.57 1.55 1.59 1.61 1.63 1.66 1.66 1.65 1.63 1.59 1.53 1.52 1.55 1.57 1.55 1.51 1.44 1.37 1.30 1.24 1.20 1.18 1.16 1.15 1.12 1.08 1.06 1.07 1.08 1.08 1.09 1.11 1.16 1.19 1.19 1.18 1.17 1.19 1.18 1.19 1.16 1.18 1.23 1.22 1.21 1.25 1.33 1.34 1.32 1.34 1.41 1.42 1.33
1.17 1.19 1.18 1.13 1.10 1.12 1.13 1.15 1.25 1.40 1.39 1.38 1.44 1.53 1.56 1.60 1.69 1.76 1.89 1.94 1.89 1.85 1.85 1.87 1.87 1.89 1.90 1.86 1.78 1.67 1.61 1.54 1.55 1.70 1.75 1.76 1.73 1.68 1.65 1.66 1.69 1.69 1.70 1.75 1.79 1.80 1.73 1.61 1.48 1.39 1.31 1.23 1.21 1.19 1.19 1.21 1.21 1.22 1.19 1.19 1.19 1.18 1.17 1.15 1.09 1.08 1.13 1.17 1.12 1.11 1.12 1.16 1.16 1.19 1.21 1.18 1.18 1.23 1.36 1.36 1.39 1.39 1.47 1.48 1.36
1.08 1.11 1.13 1.14 1.20 1.18 1.11 1.11 1.14 1.21 1.34 1.33 1.33 1.38 1.54 1.61 1.67 1.69 1.66 1.77 1.84 1.85 1.82 1.73 1.76 1.83 1.85 1.89 1.93 1.81 1.70 1.70 1.82 1.84 1.80 1.79 1.79 1.77 1.74 1.75 1.77 1.79 1.83 1.88 1.86 1.75 1.72 1.68 1.60 1.51 1.43 1.36 1.29 1.26 1.26 1.27 1.25 1.25 1.26 1.26 1.25 1.22 1.20 1.19 1.17 1.17 1.19 1.16 1.15 1.15 1.15 1.17 1.16 1.18 1.19 1.15 1.16 1.24 1.33 1.34 1.35 1.46 1.46 1.48 1.47
1.06 1.05 1.09 1.12 1.15 1.21 1.24 1.17 1.08 1.12 1.26 1.35 1.33 1.35 1.35 1.43 1.58 1.69 1.70 1.65 1.68 1.78 1.80 1.75 1.77 1.78 1.75 1.72 1.84 1.95 1.91 1.92 1.93 1.90 1.87 1.85 1.85 1.84 1.84 1.86 1.87 1.89 1.94 1.90 1.84 1.77 1.72 1.67 1.64 1.63 1.58 1.53 1.46 1.41 1.39 1.37 1.33 1.29 1.28 1.30 1.29 1.26 1.24 1.23 1.23 1.25 1.24 1.22 1.22 1.22 1.23 1.22 1.20 1.21 1.18 1.16 1.16 1.22 1.30 1.36 1.41 1.50 1.55 1.61 1.59
1.09 1.06 1.05 1.08 1.12 1.16 1.23 1.18 1.10 1.10 1.18 1.32 1.37 1.33 1.34 1.28 1.30 1.48 1.59 1.64 1.67 1.69 1.73 1.75 1.78 1.79 1.78 1.79 1.80 1.85 1.92 1.95 1.97 1.95 1.94 1.94 1.93 1.93 1.93 1.94 1.96 1.99 2.00 2.01 1.86 1.75 1.76 1.74 1.71 1.68 1.66 1.60 1.56 1.56 1.54 1.49 1.47 1.42 1.39 1.35 1.32 1.33 1.31 1.27 1.31 1.31 1.29 1.27 1.23 1.22 1.24 1.26 1.26 1.25 1.22 1.20 1.22 1.27 1.30 1.33 1.44 1.56 1.66 1.71 1.69
1.06 1.10 1.09 1.09 1.09 1.12 1.15 1.17 1.12 1.10 1.14 1.21 1.27 1.31 1.30 1.28 1.20 1.17 1.37 1.57 1.60 1.57 1.58 1.61 1.65 1.69 1.73 1.78 1.84 1.83 1.85 1.97 2.01 1.99 1.98 1.97 1.98 1.97 1.98 2.00 2.02 2.04 2.04 1.94 1.83 1.78 1.78 1.77 1.73 1.73 1.71 1.65 1.66 1.64 1.62 1.60 1.58 1.56 1.53 1.48 1.43 1.42 1.40 1.40 1.42 1.39 1.34 1.30 1.28 1.26 1.27 1.28 1.28 1.27 1.26 1.27 1.28 1.28 1.36 1.42 1.54 1.63 1.67 1.65 1.68
0.98 1.06 1.08 1.11 1.12 1.11 1.16 1.18 1.13 1.08 1.08 1.18 1.24 1.25 1.27 1.29 1.28 1.25 1.21 1.24 1.34 1.44 1.49 1.48 1.51 1.61 1.68 1.72 1.75 1.81 1.83 1.89 1.97 2.00 2.01 1.98 1.99 2.00 1.98 1.97 2.00 2.03 2.01 1.92 1.88 1.82 1.84 1.82 1.79 1.76 1.75 1.75 1.73 1.72 1.67 1.65 1.65 1.63 1.61 1.60 1.60 1.60 1.57 1.56 1.47 1.38 1.35 1.34 1.32 1.29 1.29 1.30 1.33 1.34 1.36 1.40 1.42 1.44 1.44 1.48 1.55 1.57 1.60 1.65 1.69
0.95 1.00 1.09 1.11 1.14 1.15 1.17 1.19 1.18 1.15 1.08 1.04 1.15 1.19 1.19 1.21 1.25 1.27 1.22 1.20 1.27 1.27 1.20 1.28 1.42 1.52 1.58 1.68 1.76 1.79 1.83 1.90 1.96 1.98 1.99 2.00 2.00 2.00 1.96 1.88 1.83 1.86 1.89 1.89 1.88 1.86 1.85 1.83 1.79 1.78 1.78 1.76 1.75 1.74 1.71 1.71 1.71 1.67 1.64 1.63 1.65 1.66 1.66 1.62 1.52 1.43 1.37 1.36 1.34 1.32 1.32 1.34 1.41 1.48 1.49 1.47 1.45 1.43 1.46 1.50 1.57 1.64 1.68 1.71 1.73
0.91 0.94 1.00 1.06 1.09 1.12 1.16 1.16 1.18 1.18 1.12 1.05 1.05 1.16 1.19 1.18 1.18 1.21 1.24 1.22 1.23 1.28 1.25 1.27 1.36 1.45 1.51 1.58 1.68 1.76 1.81 1.86 1.92 1.96 1.96 1.96 1.97 1.96 1.84 1.78 1.78 1.80 1.81 1.84 1.85 1.87 1.90 1.88 1.85 1.83 1.84 1.83 1.83 1.79 1.78 1.77 1.76 1.75 1.75 1.71 1.66 1.66 1.67 1.67 1.63 1.53 1.44 1.39 1.38 1.40 1.38 1.38 1.45 1.51 1.54 1.54 1.52 1.50 1.52 1.57 1.65 1.73 1.76 1.77 1.80
0.89 0.89 0.93 1.00 1.06 1.09 1.14 1.18 1.18 1.21 1.19 1.13 1.04 1.03 1.14 1.24 1.21 1.21 1.22 1.21 1.18 1.25 1.33 1.32 1.30 1.31 1.39 1.47 1.62 1.74 1.78 1.81 1.85 1.90 1.92 1.92 1.92 1.92 1.86 1.81 1.76 1.77 1.76 1.77 1.80 1.83 1.84 1.86 1.89 1.89 1.88 1.86 1.84 1.83 1.82 1.80 1.82 1.82 1.81 1.79 1.75 1.70 1.69 1.73 1.73 1.66 1.52 1.42 1.43 1.43 1.40 1.40 1.46 1.51 1.53 1.53 1.56 1.58 1.60 1.66 1.71 1.73 1.75 1.77 1.76
0.89 0.88 0.90 0.96 1.01 1.05 1.09 1.13 1.16 1.18 1.20 1.17 1.12 1.03 1.00 1.11 1.25 1.23 1.19 1.20 1.20 1.21 1.31 1.37 1.33 1.25 1.21 1.32 1.51 1.60 1.69 1.73 1.74 1.74 1.77 1.80 1.79 1.78 1.77 1.77 1.75 1.72 1.70 1.73 1.76 1.78 1.79 1.82 1.85 1.83 1.84 1.85 1.84 1.87 1.86 1.84 1.84 1.83 1.82 1.81 1.79 1.74 1.74 1.75 1.77 1.73 1.61 1.50 1.44 1.43 1.43 1.44 1.48 1.53 1.59 1.59 1.57 1.59 1.64 1.70 1.73 1.73 1.75 1.78 1.79
0.89 0.90 0.90 0.92 0.96 0.99 1.04 1.09 1.13 1.13 1.17 1.18 1.14 1.07 0.97 0.97 1.09 1.24 1.23 1.22 1.24 1.21 1.24 1.33 1.40 1.36 1.34 1.43 1.48 1.52 1.53 1.55 1.55 1.56 1.63 1.70 1.76 1.79 1.77 1.74 1.73 1.73 1.73 1.72 1.73 1.75 1.76 1.76 1.78 1.81 1.82 1.83 1.84 1.87 1.89 1.89 1.89 1.88 1.87 1.83 1.79 1.77 1.73 1.71 1.72 1.73 1.64 1.53 1.47 1.46 1.45 1.45 1.48 1.53 1.60 1.62 1.61 1.66 1.72 1.75 1.79 1.77 1.71 1.72 1.71
0.88 0.88 0.89 0.91 0.93 0.96 1.00 1.05 1.09 1.08 1.11 1.14 1.13 1.09 1.03 0.98 0.99 1.12 1.20 1.22 1.24 1.25 1.24 1.26 1.30 1.40 1.48 1.50 1.49 1.46 1.35 1.37 1.46 1.52 1.55 1.60 1.65 1.72 1.77 1.76 1.75 1.73 1.71 1.70 1.70 1.70 1.71 1.72 1.75 1.77 1.79 1.82 1.83 1.82 1.85 1.87 1.89 1.91 1.91 1.87 1.82 1.78 1.77 1.76 1.75 1.73 1.65 1.58 1.51 1.48 1.46 1.45 1.47 1.52 1.59 1.65 1.70 1.75 1.79 1.82 1.84 1.83 1.79 1.77 1.78
0.87 0.88 0.88 0.90 0.92 0.94 0.96 1.00 1.02 1.05 1.07 1.10 1.13 1.08 1.03 1.01 0.98 1.01 1.09 1.15 1.20 1.22 1.22 1.23 1.28 1.39 1.50 1.53 1.54 1.49 1.39 1.33 1.37 1.46 1.52 1.55 1.61 1.66 1.70 1.73 1.75 1.76 1.78 1.77 1.76 1.76 1.76 1.77 1.81 1.84 1.85 1.84 1.84 1.85 1.85 1.86 1.87 1.87 1.87 1.90 1.90 1.88 1.87 1.87 1.86 1.83 1.78 1.66 1.57 1.52 1.49 1.48 1.49 1.52 1.55 1.65 1.75 1.79 1.84 1.88 1.88 1.85 1.84 1.82 1.79
0.87 0.86 0.86 0.88 0.91 0.92 0.92 0.94 0.97 1.01 1.03 1.05 1.07 1.07 1.04 1.04 1.04 1.03 1.05 1.08 1.14 1.20 1.20 1.19 1.22 1.32 1.42 1.51 1.52 1.48 1.41 1.37 1.39 1.42 1.50 1.56 1.59 1.63 1.69 1.73 1.79 1.83 1.86 1.87 1.87 1.85 1.85 1.86 1.88 1.90 1.89 1.88 1.90 1.91 1.93 1.93 1.93 1.93 1.94 1.95 1.96 1.94 1.91 1.91 1.91 1.88 1.81 1.72 1.65 1.61 1.57 1.55 1.56 1.63 1.68 1.73 1.75 1.79 1.82 1.82 1.82 1.83 1.83 1.84 1.84
0.88 0.87 0.87 0.88 0.89 0.89 0.89 0.91 0.95 0.95 0.97 0.98 1.00 1.03 1.03 1.02 1.02 1.04 1.06 1.08 1.11 1.16 1.21 1.20 1.21 1.28 1.35 1.38 1.44 1.44 1.40 1.40 1.40 1.41 1.44 1.48 1.52 1.56 1.61 1.69 1.77 1.83 1.88 1.91 1.92 1.93 1.95 1.95 1.95 1.97 1.98 1.95 1.97 1.97 1.97 2.00 2.01 2.03 2.03 2.03 2.00 1.96 1.96 1.98 1.96 1.90 1.84 1.76 1.70 1.67 1.66 1.69 1.72 1.75 1.76 1.78 1.82 1.83 1.82 1.82 1.82 1.84 1.85 1.84 1.80
0.88 0.88 0.88 0.88 0.88 0.90 0.92 0.92 0.92 0.93 0.95 0.98 0.99 1.00 0.99 0.98 0.99 1.01 1.02 1.03 1.07 1.11 1.19 1.23 1.21 1.18 1.17 1.22 1.31 1.35 1.30 1.27 1.27 1.27 1.27 1.30 1.30 1.29 1.32 1.37 1.47 1.56 1.64 1.70 1.76 1.81 1.84 1.86 1.93 2.01 2.04 2.11 2.04 2.03 2.04 2.07 2.11 2.12 2.13 2.06 2.04 2.04 2.01 1.98 1.93 1.91 1.86 1.79 1.74 1.72 1.73 1.77 1.81 1.84 1.85 1.89 1.89 1.84 1.82 1.80 1.81 1.82 1.83 1.80 1.78
0.87 0.87 0.87 0.86 0.86 0.87 0.89 0.92 0.92 0.92 0.94 0.95 0.96 0.98 0.99 0.97 0.95 0.97 0.98 0.99 1.01 1.04 1.09 1.15 1.19 1.16 1.14 1.15 1.17 1.18 1.22 1.23 1.25 1.26 1.26 1.26 1.26 1.24 1.21 1.22 1.26 1.31 1.41 1.51 1.59 1.68 1.77 1.89 1.97 1.97 2.02 1.97 2.04 2.11 2.11 2.09 2.12 2.12 2.10 2.07 2.09 2.09 2.07 2.01 1.96 1.94 1.91 1.87 1.82 1.78 1.77 1.77 1.78 1.80 1.84 1.87 1.87 1.84 1.78 1.75 1.76 1.75 1.72 1.68 1.66
0.87 0.88 0.87 0.86 0.85 0.86 0.88 0.89 0.90 0.90 0.90 0.91 0.91 0.94 0.95 0.95 0.94 0.93 0.93 0.94 0.97 0.99 1.01 1.06 1.12 1.15 1.13 1.12 1.14 1.13 1.13 1.16 1.18 1.20 1.22 1.22 1.21 1.19 1.20 1.21 1.22 1.25 1.29 1.34 1.41 1.47 1.57 1.73 1.74 1.75 1.78 1.84 1.90 1.94 1.94 1.95 1.98 1.98 2.03 2.09 2.09 2.09 2.16 2.09 2.02 1.92 1.86 1.81 1.76 1.74 1.76 1.79 1.80 1.80 1.80 1.82 1.83 1.80 1.73 1.69 1.68 1.67 1.63 1.62 1.63
0.87 0.88 0.88 0.87 0.85 0.86 0.87 0.87 0.87 0.87 0.88 0.89 0.90 0.91 0.92 0.93 0.92 0.91 0.90 0.90 0.91 0.95 0.97 0.99 1.02 1.06 1.09 1.08 1.08 1.08 1.07 1.08 1.10 1.12 1.12 1.12 1.14 1.17 1.18 1.20 1.21 1.20 1.21 1.23 1.26 1.33 1.39 1.42 1.45 1.53 1.60 1.67 1.76 1.77 1.78 1.84 1.93 2.00 2.06 2.03 2.01 2.05 2.09 2.07 1.99 1.87 1.80 1.78 1.78 1.79 1.81 1.81 1.79 1.77 1.75 1.74 1.72 1.71 1.69 1.65 1.61 1.57 1.57 1.59 1.56
0.87 0.89 0.89 0.89 0.88 0.87 0.86 0.86 0.85 0.86 0.87 0.88 0.89 0.90 0.92 0.92 0.91 0.89 0.88 0.89 0.89 0.90 0.93 0.95 0.96 0.98 1.02 1.06 1.06 1.07 1.07 1.06 1.08 1.10 1.11 1.11 1.12 1.13 1.14 1.14 1.14 1.14 1.15 1.16 1.18 1.23 1.29 1.34 1.37 1.44 1.52 1.55 1.52 1.50 1.57 1.69 1.80 1.90 1.93 1.95 1.98 2.00 2.00 1.99 1.93 1.86 1.80 1.79 1.81 1.81 1.78 1.71 1.67 1.68 1.68 1.66 1.63 1.61 1.55 1.50 1.50 1.48 1.48 1.48 1.50
0.88 0.89 0.89 0.89 0.88 0.88 0.87 0.86 0.85 0.85 0.86 0.88 0.89 0.89 0.91 0.91 0.91 0.90 0.89 0.88 0.88 0.89 0.90 0.92 0.93 0.94 0.96 1.02 1.05 1.04 1.06 1.06 1.06 1.08 1.09 1.10 1.10 1.11 1.13 1.15 1.17 1.16 1.13 1.10 1.14 1.18 1.20 1.24 1.29 1.32 1.41 1.54 1.55 1.53 1.51 1.55 1.63 1.71 1.77 1.84 1.89 1.91 1.91 1.91 1.89 1.86 1.82 1.81 1.81 1.80 1.74 1.67 1.65 1.65 1.67 1.62 1.58 1.54 1.48 1.43 1.42 1.43 1.44 1.45 1.44
0.87 0.87 0.87 0.87 0.87 0.88 0.89 0.89 0.88 0.87 0.88 0.88 0.88 0.89 0.90 0.90 0.89 0.89 0.90 0.90 0.89 0.89 0.91 0.93 0.93 0.94 0.94 0.98 1.03 1.05 1.06 1.05 1.05 1.07 1.08 1.10 1.10 1.09 1.10 1.12 1.15 1.16 1.14 1.12 1.13 1.15 1.17 1.14 1.13 1.17 1.21 1.30 1.45 1.47 1.53 1.62 1.67 1.72 1.72 1.75 1.77 1.78 1.81 1.84 1.84 1.79 1.76 1.75 1.78 1.77 1.70 1.60 1.54 1.57 1.59 1.58 1.55 1.53 1.51 1.49 1.47 1.46 1.43 1.40 1.40
0.88 0.89 0.89 0.88 0.89 0.90 0.90 0.89 0.89 0.89 0.89 0.89 0.89 0.89 0.88 0.87 0.87 0.88 0.88 0.90 0.92 0.92 0.92 0.94 0.95 0.96 0.96 1.00 1.03 1.05 1.06 1.07 1.07 1.06 1.07 1.09 1.10 1.11 1.12 1.13 1.14 1.14 1.13 1.14 1.16 1.19 1.23 1.25 1.29 1.36 1.49 1.52 1.46 1.38 1.39 1.48 1.55 1.57 1.55 1.58 1.62 1.64 1.66 1.67 1.68 1.67 1.69 1.73 1.75 1.72 1.64 1.56 1.51 1.51 1.51 1.49 1.48 1.46 1.46 1.45 1.45 1.42 1.39 1.38 1.38
Wind_Speed
26 26 26 26 26 26 25 25 25 25 24 24 24 24 24 23 22 22 21 20 19 19 18 17 16 15 14 14 13 13 12 12 11 11 10 9 9 8 7 7 6 6 5 5 5 4 4 4 4 5 5 5 6 6 7 7 7 8 8 8 9 9 9 9 9 9 8 7 7 7 7 8 8 8 8 9 9 10 10 10 11 11 11 11 11
27 26 26 27 27 26 26 26 26 26 25 25 24 24 24 24 24 23 22 21 21 20 19 18 17 17 16 15 15 14 13 13 13 12 11 11 10 9 8 8 8 7 7 6 6 5 5 5 5 5 6 6 6 7 7 8 8 8 8 9 9 10 10 10 10 10 9 9 9 8 8 9 9 9 10 10 10 10 10 11 11 11 11 11 11
27 27 27 28 27 27 27 26 26 26 26 25 25 25 25 25 25 24 24 23 22 21 21 20 19 18 17 17 16 16 15 14 14 13 13 12 11 11 10 9 9 8 8 8 7 7 6 6 6 6 6 6 7 7 8 8 8 9 9 9 10 10 10 11 11 11 11 10 10 10 10 10 10 11 11 11 11 11 11 11 11 12 12 12 12
28 28 28 28 28 28 28 27 27 27 26 26 26 26 25 25 25 25 25 24 23 22 22 21 21 20 19 18 18 17 17 16 15 15 14 13 13 12 11 11 10 10 9 9 8 8 8 8 7 7 7 7 7 8 8 9 9 9 9 10 11 11 11 12 12 12 12 12 11 11 11 11 11 12 12 12 12 12 12 12 12 12 12 13 12
29 29 29 29 29 29 28 28 28 28 27 27 26 26 26 25 25 26 25 25 24 24 23 23 22 21 21 20 19 19 18 18 17 16 16 15 14 13 13 12 12 11 11 10 10 10 9 9 9 8 8 8 8 8 8 9 9 10 10 10 11 11 12 12 13 13 13 13 13 12 12 12 12 12 13 13 13 13 13 12 12 13 13 13 13
29 30 29 30 29 29 29 29 28 28 28 28 27 27 26 26 26 26 26 26 25 25 24 24 23 23 22 22 21 20 20 19 19 18 17 17 16 15 15 14 13 13 12 12 12 11 11 11 10 10 10 10 9 9 9 10 10 10 10 11 11 12 12 13 13 13 13 14 14 14 14 13 13 13 13 13 13 13 13 13 13 13 14 14 14
29 30 30 30 30 30 30 29 29 29 29 29 28 27 27 27 26 26 27 27 26 26 25 25 25 24 24 23 22 22 21 21 20 19 19 19 18 18 17 16 15 15 14 13 13 13 13 12 12 12 11 11 11 11 11 11 11 11 11 11 11 12 12 13 13 13 14 14 14 15 15 14 14 14 14 14 14 14 14 14 14 14 14 15 15
29 30 30 31 30 30 30 30 30 29 29 29 29 28 28 27 27 27 27 27 27 27 26 26 26 26 25 24 24 23 22 22 22 21 21 20 20 20 19 18 18 17 16 15 15 15 14 14 14 13 13 13 12 12 12 12 12 12 12 12 12 12 13 13 13 14 14 15 15 15 15 15 15 15 15 15 15 15 14 14 15 15 15 15 15
29 30 30 31 31 31 30 30 30 30 30 30 30 30 29 28 28 28 27 28 28 28 28 27 27 27 27 26 25 25 24 24 23 23 22 22 21 21 21 20 20 19 18 18 17 16 16 16 15 15 15 14 14 14 14 13 13 13 13 13 14 14 14 14 14 14 15 15 15 16 16 16 16 16 16 16 16 16 15 15 15 16 16 16 16
29 29 30 31 31 31 31 31 31 31 31 31 31 31 30 29 29 28 28 28 28 28 28 28 28 28 28 28 27 26 26 25 25 24 24 23 23 22 22 22 22 21 20 20 19 19 18 18 17 17 17 16 16 15 15 15 15 15 15 15 15 15 15 15 15 15 16 16 16 17 17 17 17 17 18 18 17 17 17 16 16 16 17 17 17
29 29 30 30 31 31 32 32 32 32 32 32 32 31 31 30 29 29 29 29 28 28 28 29 28 28 28 28 28 28 27 27 26 26 26 25 24 24 24 24 23 23 22 22 21 21 20 20 19 19 18 18 17 17 17 17 17 17 17 17 17 17 16 16 16 16 17 17 17 17 18 18 18 19 19 19 19 18 18 18 18 18 18 18 18
30 30 29 30 30 31 32 32 32 32 32 32 32 32 32 31 31 30 30 30 29 29 29 29 29 29 28 29 29 29 29 29 28 28 27 27 26 25 25 25 24 24 24 24 23 22 22 21 21 20 20 20 19 19 18 18 18 18 18 18 18 18 18 18 18 18 18 18 18 18 19 19 20 20 20 20 20 20 19 19 19 19 19 19 19
30 30 30 29 30 30 31 32 32 33 33 32 32 32 32 32 31 31 31 30 30 30 30 29 29 29 28 29 29 29 29 29 29 29 29 28 28 27 26 26 26 25 25 25 25 24 24 23 22 22 21 21 21 20 20 19 19 19 19 19 19 19 19 19 19 19 19 19 19 19 20 20 20 20 20 21 21 21 21 21 21 20 20 20 20
28 30 30 30 30 30 31 31 32 33 33 33 33 33 33 33 32 31 31 31 31 31 30 30 29 29 29 29 29 29 29 29 29 30 29 29 29 28 27 27 27 26 27 26 26 26 25 25 24 24 23 23 22 22 21 21 20 20 20 20 20 20 20 20 20 20 20 20 20 20 21 21 21 21 21 21 21 22 22 22 22 21 21 21 21
26 27 29 29 29 29 30 30 31 31 32 33 33 33 33 33 33 32 31 31 31 31 31 30 30 30 30 29 29 28 28 29 29 29 29 29 29 29 28 28 27 27 27 27 27 27 27 26 26 25 25 24 24 23 23 22 22 21 21 21 21 21 21 21 21 21 21 21 21 22 22 22 22 22 21 21 21 22 22 22 22 22 22 22 22
26 27 27 28 29 29 29 30 30 31 31 32 33 34 33 33 33 33 32 32 32 32 31 31 30 30 30 30 30 29 29 29 29 29 29 29 29 28 28 28 28 28 28 28 28 28 27 27 27 26 26 26 25 25 24 24 23 23 22 22 22 22 22 22 22 22 22 22 22 22 22 22 22 22 22 22 22 22 22 22 22 22 22 22 22
26 27 28 28 29 29 30 30 30 31 31 32 33 33 33 33 33 33 33 33 32 32 32 31 31 31 31 31 30 30 30 29 29 29 29 29 28 28 28 28 28 28 28 28 28 28 28 28 27 27 27 27 26 26 25 25 25 24 23 23 23 23 23 23 23 23 24 24 24 24 24 24 24 24 23 23 22 22 21 21 22 21 21 21 21
24 26 27 28 29 29 30 30 31 31 31 32 32 32 32 32 33 33 33 33 33 33 32 32 31 31 31 31 31 31 30 30 30 30 29 29 29 28 28 28 28 28 28 28 28 28 28 28 28 28 28 27 27 27 26 26 26 25 25 24 24 24 24 24 23 24 24 25 25 25 25 25 25 24 24 23 23 22 22 22 21 21 21 21 21
23 24 25 27 29 29 30 31 31 32 32 32 32 32 32 32 32 33 34 34 34 33 32 32 32 31 31 31 31 31 31 30 30 30 30 30 29 29 28 28 28 28 28 28 28 28 29 29 29 29 29 28 28 28 27 27 27 26 26 25 25 25 25 25 24 24 24 24 25 25 25 25 25 24 24 23 23 22 22 22 21 21 21 21 20
23 24 24 26 27 28 29 30 31 32 32 32 33 33 33 32 32 33 33 34 35 34 33 33 32 32 31 31 31 31 31 31 30 30 30 30 30 30 29 29 29 29 29 29 28 28 29 29 29 29 30 29 29 29 28 28 28 27 27 26 26 26 26 25 25 25 25 25 25 25 25 25 25 24 24 23 23 22 22 22 21 21 21 21 21
24 24 24 24 25 27 28 28 29 31 32 32 33 33 33 33 33 33 33 33 34 34 34 33 33 32 31 31 31 31 31 31 31 31 31 31 31 30 30 29 29 29 29 29 29 29 29 29 30 30 30 30 30 29 29 28 28 28 27 27 27 26 26 25 25 25 25 25 25 24 25 25 25 25 24 24 23 23 22 22 22 22 22 22 22
23 24 24 24 24 25 26 27 28 29 30 31 32 32 32 32 32 32 32 31 32 32 33 33 33 32 31 31 31 31 31 31 31 31 31 31 31 31 31 30 30 30 29 29 30 30 30 30 31 30 30 30 30 29 29 28 28 28 28 28 28 27 26 25 25 24 24 24 24 24 24 24 24 24 24 24 24 24 23 23 23 23 24 23 23
22 23 24 25 24 24 25 26 27 28 29 30 31 31 31 31 31 31 31 31 31 32 32 33 32 32 31 31 30 30 31 31 31 31 31 31 32 32 32 31 31 30 30 30 30 30 31 31 31 31 30 30 29 29 28 28 27 28 28 28 28 27 26 26 25 25 24 24 24 24 24 24 24 24 24 25 25 24 25 25 25 25 25 25 25
22 22 24 25 25 25 25 25 26 27 28 29 29 29 30 30 30 30 30 30 31 31 31 31 31 31 31 30 30 30 30 30 31 31 31 31 31 32 32 32 32 31 31 30 30 30 30 31 31 30 30 29 29 29 28 27 27 27 28 28 27 27 26 26 26 26 25 25 25 25 25 25 25 25 25 25 25 25 26 26 26 26 26 26 26
24 23 23 25 25 26 26 26 26 27 28 28 29 29 28 29 29 29 29 30 30 30 30 30 29 29 29 30 30 29 29 29 29 30 30 31 31 31 31 31 31 31 31 30 30 29 29 30 30 30 29 29 28 27 27 27 27 27 27 27 27 26 26 27 26 26 26 26 25 25 25 26 26 26 26 26 27 26 26 26 27 27 27 26 27
27 25 24 25 25 26 27 27 27 27 27 27 28 28 28 28 28 28 29 30 30 30 30 29 29 28 28 29 29 29 29 29 29 29 29 29 30 30 30 30 31 31 30 30 30 29 29 29 29 28 28 28 27 27 27 27 27 27 27 27 27 27 27 27 27 26 26 26 26 26 26 27 27 27 27 27 27 27 27 27 27 27 27 27 27
28 27 26 26 25 26 27 27 27 27 27 27 27 27 28 29 29 28 28 28 29 30 30 29 28 27 27 28 29 29 29 28 29 28 28 28 28 29 29 29 29 29 29 29 29 29 29 28 28 28 27 27 27 27 27 27 27 27 27 27 27 28 28 28 28 27 27 27 27 27 27 27 28 28 28 28 28 28 28 27 27 28 28 27 27
28 29 29 28 27 26 26 27 28 27 27 28 28 28 28 29 29 30 29 28 29 30 30 29 29 28 28 28 28 29 29 29 29 29 28 28 28 28 28 28 28 28 28 28 28 28 28 28 27 27 27 27 27 27 27 27 27 27 27 27 28 28 29 29 29 28 28 28 28 28 28 28 29 29 29 29 29 29 28 28 28 28 28 28 28
29 29 29 29 29 27 27 28 28 28 27 27 28 28 29 29 30 30 31 31 30 30 30 30 30 30 30 29 29 29 28 29 29 29 29 29 29 28 29 29 29 29 29 28 28 28 28 28 27 27 27 26 26 26 26 26 26 27 27 27 27 28 28 29 29 29 29 29 29 29 29 29 29 30 30 30 30 29 29 29 29 29 29 28 29
32 31 30 30 29 28 28 28 29 29 29 28 28 28 29 30 31 31 31 31 31 31 31 31 32 32 31 30 30 30 29 29 29 30 31 31 30 30 30 29 29 29 29 29 28 28 28 28 27 27 27 26 26 26 26 26 26 26 27 27 27 27 28 28 29 29 29 30 30 30 30 30 30 30 30 30 30 30 30 30 30 29 29 29 29
35 34 32 31 31 30 29 29 29 30 31 31 30 29 28 29 31 32 32 32 32 32 32 33 33 34 34 33 32 32 31 31 31 31 31 31 31 31 31 31 31 30 29 29 29 28 28 28 27 27 27 27 27 27 27 27 27 27 27 27 28 28 28 28 29 29 29 30 30 30 30 30 31 31 31 31 31 30 30 30 30 29 29 29 29
37 36 34 34 33 32 31 30 29 29 31 32 31 30 29 29 30 31 32 33 33 33 33 33 32 33 34 34 33 33 33 33 33 33 33 32 32 32 31 31 31 31 30 29 29 29 28 28 28 28 28 28 28 28 28 28 28 28 28 28 28 29 30 30 30 30 30 30 31 31 31 31 31 31 31 30 30 30 30 30 30 30 30 30 30
37 37 36 35 34 33 33 31 30 29 30 32 32 31 31 30 29 30 31 32 33 33 32 32 32 31 32 33 34 35 35 35 34 34 34 33 33 32 32 32 31 31 30 30 30 29 29 29 29 29 29 29 29 28 28 28 29 29 29 29 29 30 30 31 31 31 31 31 31 31 31 31 31 31 30 30 30 30 30 30 30 30 30 30 30
38 38 37 36 36 35 34 32 30 29 30 32 33 33 33 31 30 30 31 31 32 32 31 31 32 32 31 32 32 33 35 36 37 36 35 35 34 33 33 32 31 32 32 32 31 31 30 30 30 30 30 30 30 29 29 29 29 30 30 30 30 30 30 31 31 31 31 31 31 31 31 31 31 30 30 30 30 30 30 30 30 30 30 31 31
40 39 38 37 36 36 35 33 32 31 31 32 33 33 34 33 31 31 31 32 32 32 31 30 31 31 31 31 31 32 33 35 36 37 37 36 35 34 34 33 33 33 33 33 33 32 32 32 31 31 31 31 31 31 31 30 30 30 31 31 31 31 31 31 31 31 31 31 31 31 31 31 31 31 30 30 30 30 30 30 30 30 31 31 31
41 40 39 39 37 36 36 35 34 33 33 33 33 33 34 34 33 32 31 32 32 32 32 30 30 30 31 31 31 31 31 32 34 36 37 37 36 35 35 35 34 34 35 35 35 34 34 33 33 33 32 32 33 33 33 32 32 31 32 32 32 31 31 31 31 31 31 31 31 31 31 32 31 31 30 30 30 30 30 30 31 31 31 31 32
42 41 40 40 40 38 37 37 36 35 34 35 35 33 33 35 35 34 33 32 32 32 33 32 31 30 30 30 31 31 31 31 32 33 35 36 37 37 36 36 35 35 36 36 36 36 35 35 35 34 34 34 34 34 34 34 33 33 33 33 33 33 32 32 32 32 32 32 32 32 32 32 31 31 31 31 30 30 31 31 31 31 32 32 32
43 42 41 41 41 41 39 39 38 37 35 35 36 35 33 33 35 36 35 34 33 32 33 33 33 31 30 30 30 30 30 30 30 31 32 33 35 36 36 36 36 36 36 37 37 37 37 37 36 36 35 35 35 35 35 35 35 34 34 34 35 34 34 33 33 32 32 32 33 33 32 32 32 31 31 32 31 31 31 32 32 32 32 33 33
44 43 42 42 42 42 41 41 40 39 37 36 36 36 34 33 33 34 35 35 35 33 33 33 34 33 31 30 29 29 29 30 31 31 32 32 34 35 36 36 36 36 36 37 37 38 38 38 38 37 37 37 37 36 36 35 35 35 35 35 35 35 34 34 34 33 33 33 33 33 33 32 32 32 32 32 32 32 32 32 33 33 33 33 33
45 44 43 42 42 42 42 42 41 41 40 39 38 37 36 35 33 33 34 35 35 34 34 34 34 33 32 31 30 30 30 31 32 33 33 33 34 35 35 36 36 36 36 36 37 38 38 39 39 39 39 38 38 37 37 36 36 36 36 36 36 35 35 35 35 35 34 33 33 33 33 33 33 33 33 33 33 33 33 33 33 34 34 33 33
46 45 44 43 42 42 42 42 42 41 41 41 40 39 38 37 35 34 34 35 35 35 34 34 34 34 33 32 32 32 32 32 32 33 34 34 35 35 36 36 36 36 36 37 37 38 39 39 40 40 40 39 39 38 38 38 38 37 37 37 38 37 36 36 36 36 35 34 33 33 34 33 33 34 34 34 34 34 33 33 33 34 35 34 34
46 46 44 44 43 43 42 41 42 42 41 41 41 40 39 38 37 36 35 35 35 35 35 35 34 34 34 34 34 35 35 34 34 33 34 34 35 36 36 37 37 37 37 38 38 38 39 40 41 42 41 41 40 40 39 39 39 39 38 39 39 38 38 38 38 37 36 35 35 34 34 34 34 34 35 35 34 34 34 34 34 35 35 35 34
46 46 45 44 44 43 42 42 41 42 41 41 41 40 40 39 38 37 36 36 36 36 35 35 34 33 32 32 33 33 34 34 34 34 33 33 34 34 35 36 36 37 37 38 38 39 40 41 42 43 42 41 40 40 40 40 41 41 40 40 40 39 38 38 37 36 36 36 35 35 35 34 34 35 35 34 34 34 34 34 34 34 34 34 33
46 45 45 45 44 44 43 42 41 41 41 40 40 40 40 39 38 37 36 36 36 35 35 34 33 32 32 31 31 31 32 33 33 34 33 33 33 33 34 35 36 36 37 38 38 39 41 42 43 42 40 40 40 41 40 40 41 42 42 42 41 40 38 37 37 37 36 36 36 36 36 35 35 35 34 33 33 33 33 33 33 33 33 32 31
45 45 44 44 44 43 43 42 41 41 40 40 39 39 39 39 38 37 37 36 35 35 34 34 33 33 32 32 31 31 31 32 33 34 33 33 33 33 33 34 35 36 36 37 38 39 41 42 41 40 39 40 40 41 40 40 40 41 41 41 39 38 37 37 37 37 37 37 37 37 37 36 35 34 33 32 32 32 32 32 31 31 30 30 30
45 44 44 43 43 43 43 42 41 41 40 39 39 39 39 39 38 38 37 37 36 35 35 34 34 33 33 32 31 31 31 31 32 33 33 33 33 33 33 34 35 36 36 37 37 38 39 40 39 38 38 38 38 38 38 39 39 40 39 38 37 37 36 37 37 37 37 38 38 37 37 36 35 34 33 32 32 31 30 30 29 29 29 29 29
43 43 43 42 42 42 42 42 41 41 40 39 38 38 38 38 38 38 37 37 36 36 35 35 34 34 33 32 32 31 31 31 31 32 32 33 33 33 33 33 34 35 36 36 37 37 37 37 37 37 37 37 36 37 37 37 37 38 38 37 37 37 37 37 37 37 36 36 36 35 35 34 33 33 33 32 31 29 28 27 27 27 27 28 28
42 42 42 42 41 41 41 41 41 40 40 39 38 37 37 37 37 37 37 37 36 36 35 35 35 34 34 33 32 32 32 31 31 31 32 33 33 33 33 33 33 33 34 34 35 36 36 35 35 35 35 35 35 36 36 36 36 36 35 35 35 35 35 35 36 35 35 34 33 33 32 31 30 31 30 28 27 26 26 26 25 24 24 25 27
42 42 42 42 41 40 40 40 40 40 39 38 37 36 36 36 36 36 36 36 36 35 35 35 35 34 33 33 33 33 32 32 32 32 32 32 33 33 33 33 33 32 32 33 33 34 34 34 34 34 34 34 35 35 35 34 34 34 33 33 33 33 33 33 32 32 31 32 31 31 30 29 28 27 26 25 24 24 25 25 25 26 27 28 30
40 41 41 41 41 41 40 39 39 39 38 38 37 36 36 35 35 35 35 35 34 34 34 34 34 34 33 33 33 33 33 33 33 33 32 32 32 33 33 32 32 32 31 31 31 31 32 32 32 33 33 32 32 33 33 33 32 32 32 32 31 30 29 29 28 28 28 29 29 29 28 27 27 26 26 25 25 26 26 26 27 28 30 31 31
39 39 40 40 40 40 39 39 39 38 38 38 37 37 36 35 35 34 34 33 33 34 34 34 34 34 33 33 33 33 33 34 34 33 33 32 32 32 31 30 30 29 29 29 29 29 29 29 30 30 30 29 29 29 30 30 30 29 29 28 27 26 26 26 25 25 25 26 26 26 26 25 24 25 26 26 26 26 26 27 28 29 30 31 31
Wind_Direction
214 215 215 214 214 213 213 213 214 214 213 214 214 215 215 216 217 217 217 218 218 217 218 218 219 219 220 220 219 218 218 217 217 218 219 220 220 221 220 217 216 217 219 220 220 222 225 227 229 227 225 225 226 227 228 229 230 231 232 232 231 231 231 234 242 251 252 253 260 268 275 282 285 289 296 299 303 308 312 319 326 332 337 341 343
215 215 216 216 216 215 215 215 215 215 215 215 215 216 217 218 218 219 220 220 220 220 220 221 222 222 222 223 223 223 222 221 221 221 223 224 224 225 225 225 225 225 227 229 229 230 233 237 238 236 234 234 234 234 233 234 235 237 237 237 236 235 235 238 244 253 258 259 263 269 275 280 285 288 294 298 300 304 307 313 320 326 331 334 336
216 216 216 217 217 217 216 216 217 216 216 217 217 217 218 219 220 220 221 222 222 222 222 222 223 224 225 225 226 226 226 225 225 225 226 227 228 228 228 229 230 231 233 235 236 237 238 241 242 241 241 241 241 240 238 238 239 241 242 241 241 240 239 242 246 252 260 263 265 270 275 280 284 289 294 297 299 302 304 308 313 319 325 327 328
217 217 217 218 218 218 218 218 218 218 218 218 218 219 219 219 221 222 223 223 224 225 224 224 224 225 226 226 227 228 229 228 228 228 228 229 229 230 230 231 232 233 236 238 240 242 243 244 245 245 246 246 246 245 244 243 244 245 245 244 244 243 243 245 248 252 258 263 267 270 274 279 283 287 292 296 297 300 303 305 310 315 319 320 322
218 218 218 219 219 220 219 219 219 219 219 220 220 220 220 220 221 223 224 224 225 226 226 226 226 226 226 227 227 229 230 230 230 230 231 231 232 232 232 233 235 236 238 240 241 244 246 248 249 249 249 250 249 248 247 247 248 249 249 248 247 246 245 246 248 251 255 261 266 270 273 276 280 284 289 292 294 296 299 302 306 311 316 317 317
219 219 219 219 220 220 221 221 221 221 221 221 221 221 221 221 222 224 225 225 226 227 227 227 227 227 228 228 228 229 230 231 232 232 233 233 234 235 235 236 238 239 241 242 243 244 247 249 251 252 252 252 251 251 250 251 251 251 252 252 251 249 249 248 249 251 254 258 263 268 271 274 277 281 285 288 292 294 296 299 302 306 312 315 316
219 219 219 220 221 221 221 221 222 222 222 223 223 223 223 223 223 224 226 226 227 227 227 228 229 229 229 230 229 230 230 232 233 234 234 235 235 236 237 238 240 242 244 245 245 246 247 249 251 252 253 254 254 254 254 254 254 254 254 254 254 253 253 253 253 254 255 258 262 266 269 272 276 279 283 287 290 291 293 296 298 301 306 311 313
221 220 220 220 221 222 222 223 223 223 224 224 224 224 225 225 225 225 226 227 228 229 229 229 230 230 231 231 231 231 231 232 234 235 235 236 237 238 238 240 241 243 245 247 247 248 249 250 251 252 253 254 255 256 257 256 257 257 256 257 256 256 257 257 257 258 259 261 263 266 269 271 274 277 281 284 286 287 289 292 294 297 300 305 309
222 222 222 221 222 223 223 224 224 225 225 226 226 226 226 227 227 227 227 228 229 230 230 230 231 231 232 232 233 233 233 234 234 235 236 238 239 239 240 241 242 243 245 247 248 250 251 251 252 253 253 255 255 256 257 258 258 258 259 259 259 259 259 260 261 261 263 265 267 269 271 272 274 277 279 281 283 285 287 288 290 292 295 299 302
224 224 223 223 223 223 224 225 225 226 226 227 227 228 228 228 228 229 229 229 230 231 231 232 232 232 233 233 234 234 235 236 236 236 237 238 240 241 241 242 243 244 246 247 249 250 251 252 253 253 254 255 255 256 256 257 258 259 260 260 261 261 262 262 264 264 266 268 270 272 273 275 276 278 280 281 282 283 285 287 288 290 292 294 296
225 225 225 225 225 225 225 226 227 227 228 228 229 229 229 229 230 230 230 231 231 232 232 233 233 234 234 234 235 235 236 237 237 237 238 239 240 241 242 243 244 245 246 247 249 251 252 253 254 254 255 255 256 256 256 257 258 259 259 260 262 263 264 265 266 267 268 270 272 273 275 276 277 278 280 281 281 281 283 286 288 289 291 292 293
226 225 226 226 226 226 227 228 228 229 230 230 230 230 231 230 231 231 231 232 232 233 233 233 234 235 235 235 235 236 237 238 238 238 239 240 241 242 243 244 245 245 246 247 249 251 252 253 254 255 255 256 256 257 257 257 258 259 260 260 261 263 264 265 267 268 270 272 273 275 276 277 278 279 280 280 280 281 282 284 286 287 288 290 292
227 226 226 226 226 227 227 228 229 230 231 231 231 232 232 232 232 232 233 233 234 234 234 234 235 235 236 236 237 237 238 239 239 239 240 241 241 242 244 244 245 245 246 247 249 250 252 253 254 255 256 256 256 258 258 259 259 259 260 261 262 262 263 264 266 268 270 272 274 275 276 278 279 279 280 280 281 281 282 284 285 286 286 288 290
227 227 227 227 227 227 227 228 229 230 231 232 232 232 232 233 233 234 234 234 235 235 235 235 236 236 237 237 238 239 239 239 239 240 240 241 241 243 244 245 245 246 246 247 249 250 251 252 253 255 256 256 256 257 259 260 260 261 261 262 263 263 263 264 265 267 268 270 272 274 276 278 279 280 281 281 281 282 282 284 285 285 286 286 288
226 227 227 228 228 228 228 228 229 230 231 232 232 232 233 233 234 234 235 235 235 236 236 236 237 237 238 238 239 240 240 240 240 240 241 241 242 243 244 245 245 246 247 248 249 250 251 252 253 254 255 256 256 256 258 259 260 261 261 262 263 264 265 265 265 267 268 269 271 273 275 277 279 280 281 281 281 282 283 283 284 285 285 285 286
228 228 227 228 229 230 230 230 231 232 232 232 232 232 233 234 234 234 235 236 236 237 237 237 238 238 238 239 239 240 241 241 240 241 241 242 242 243 244 245 245 246 247 248 249 250 251 252 253 254 255 256 256 256 257 259 260 261 262 262 264 265 265 265 265 266 268 269 271 272 274 276 278 279 280 280 281 282 283 284 284 284 283 283 284
233 232 231 231 232 232 233 233 233 234 234 234 234 234 233 234 235 235 236 236 237 237 237 237 238 238 239 239 239 240 241 241 241 241 242 242 243 244 244 245 246 246 247 248 249 250 251 252 253 254 255 256 256 255 256 258 260 260 261 263 264 265 265 266 266 266 267 268 270 271 273 275 276 277 278 279 279 281 282 283 283 283 282 282 282
238 237 236 236 236 236 236 235 235 236 236 236 236 236 235 235 235 236 237 237 237 238 238 238 238 239 239 239 240 240 242 242 241 241 242 242 243 244 245 245 246 246 247 248 249 250 251 251 252 254 255 256 256 256 256 257 259 259 261 262 264 265 265 267 268 268 268 268 269 271 272 274 275 276 277 277 277 278 279 281 282 282 281 281 281
240 240 240 239 238 239 239 238 237 237 238 238 237 237 238 238 237 236 236 237 238 239 238 239 239 239 240 240 241 242 243 243 243 242 242 242 243 244 245 245 246 246 247 248 249 250 251 251 252 253 255 256 257 256 256 257 258 259 260 262 263 264 265 267 269 270 270 270 270 271 272 273 274 275 276 275 275 275 277 279 280 280 280 280 281
242 242 242 241 240 239 240 240 239 239 239 239 238 238 240 241 240 239 238 237 237 238 238 239 240 240 241 242 242 243 243 244 244 243 243 243 243 244 245 246 246 246 247 247 248 249 251 252 253 253 254 255 257 257 257 257 258 259 260 261 263 264 266 268 269 270 270 270 271 272 272 273 273 274 274 275 274 274 275 276 278 278 279 279 280
242 242 242 242 241 240 240 240 241 241 241 241 240 240 241 242 243 244 242 239 237 236 237 239 240 242 242 243 243 243 243 244 244 243 243 244 243 244 245 246 246 247 247 247 248 250 251 252 253 253 253 255 256 257 257 257 258 259 260 260 262 265 267 269 269 270 270 270 271 272 272 272 272 272 273 274 274 274 274 275 275 276 277 278 278
243 242 242 242 242 242 241 241 241 242 242 241 241 241 242 243 244 245 244 243 241 238 238 239 240 242 243 244 244 244 243 244 244 244 244 244 244 245 246 246 247 247 248 248 249 250 251 252 254 254 254 255 256 257 257 257 258 259 260 260 262 264 266 268 269 270 270 270 270 271 271 271 271 271 271 272 273 274 274 274 274 275 276 277 278
246 245 243 242 243 244 244 244 243 243 243 242 241 242 242 243 243 243 243 244 245 243 241 239 240 241 243 244 245 245 244 244 244 244 244 244 244 245 246 247 247 248 249 250 250 250 251 252 254 254 254 255 256 256 257 257 258 259 259 260 262 264 265 267 268 269 269 269 270 270 270 271 271 271 270 271 273 273 274 275 275 275 275 276 277
248 249 246 245 245 246 247 247 246 246 245 243 243 243 243 243 243 242 242 242 243 244 243 240 240 241 243 244 245 245 245 244 243 243 243 244 244 245 246 247 248 248 250 251 251 252 252 253 254 254 254 255 255 256 257 257 258 258 259 260 261 263 264 265 266 267 268 268 269 269 270 270 271 271 271 273 274 274 274 275 275 275 275 275 276
249 250 250 249 248 247 247 247 247 247 246 245 244 243 243 244 243 242 242 241 241 243 243 241 240 241 242 244 245 245 245 245 244 243 243 243 243 244 245 246 247 248 249 250 251 252 253 253 254 254 254 255 256 257 257 257 257 257 258 259 261 262 262 263 264 265 267 268 268 269 269 270 271 273 273 274 274 274 274 275 276 276 276 276 276
249 249 250 250 250 250 248 247 247 247 247 246 245 244 244 244 243 242 242 241 240 241 242 241 241 241 241 242 244 244 244 244 245 244 243 243 244 244 244 245 246 247 248 249 251 252 253 253 254 254 255 255 256 257 257 257 257 258 258 259 260 261 261 262 262 264 265 267 268 269 270 271 272 273 274 274 274 274 274 275 276 276 276 276 276
248 249 249 250 250 250 249 248 248 248 248 247 246 244 244 244 243 241 241 241 240 241 241 241 241 241 241 242 243 243 243 244 244 244 244 244 245 245 245 246 246 246 247 249 250 251 252 253 254 255 255 256 256 257 258 258 259 259 259 259 259 260 260 261 262 263 265 266 268 269 270 271 272 272 273 273 273 273 273 274 275 275 276 276 276
248 249 249 250 250 249 249 248 248 248 248 247 246 245 244 243 241 240 240 241 241 241 242 242 242 242 243 243 243 243 243 243 243 243 243 244 244 245 246 247 246 246 247 248 249 250 251 252 253 254 255 255 256 256 257 258 258 259 259 259 259 260 260 261 262 263 264 266 267 269 270 271 271 271 272 272 271 271 272 272 273 273 274 274 274
249 250 249 249 249 249 249 248 248 248 248 248 247 247 246 243 242 241 241 241 242 243 244 245 244 243 244 244 244 243 243 243 242 243 243 243 243 244 245 246 247 247 247 247 248 250 250 251 253 254 255 255 255 256 256 257 257 258 259 260 260 261 261 261 262 263 264 265 266 268 270 271 271 271 271 271 270 270 270 270 271 272 272 273 273
250 251 250 248 249 249 250 250 249 249 249 249 248 249 248 246 244 243 243 243 243 245 247 247 246 244 244 244 245 244 244 244 244 244 244 245 245 245 246 246 247 248 247 247 248 250 251 252 253 254 255 256 256 257 257 258 258 259 260 261 261 262 263 263 264 264 265 265 267 268 270 271 271 271 271 271 270 270 269 269 270 271 271 271 272
248 250 250 249 250 250 250 251 252 251 250 249 248 249 250 249 246 244 245 246 246 246 246 248 247 245 244 245 246 246 245 245 246 246 246 246 246 247 248 247 247 247 247 247 248 250 252 253 254 255 256 257 258 258 259 259 260 260 261 262 263 263 264 265 266 266 266 267 268 269 270 271 271 272 271 270 270 270 269 268 269 270 270 270 271
247 248 249 249 250 250 249 250 252 252 251 249 247 248 251 251 249 247 246 246 247 246 246 247 247 245 243 244 247 247 246 245 245 245 246 247 247 248 248 247 247 247 246 247 249 251 252 253 255 256 256 257 259 259 260 261 261 261 261 263 264 264 265 266 266 267 267 268 269 270 271 271 271 271 270 270 269 269 269 268 268 269 269 270 270
246 247 248 249 249 249 249 248 250 252 252 250 248 248 250 252 252 251 249 247 246 246 246 246 246 246 245 246 248 248 246 245 245 245 245 247 248 248 248 248 248 247 247 249 252 253 254 255 256 257 258 258 259 260 261 262 263 263 263 264 265 265 266 266 266 267 268 268 269 270 271 271 270 270 269 269 269 269 269 268 268 268 268 269 269
245 246 248 249 249 249 249 248 249 251 252 250 248 248 249 250 252 252 252 249 247 246 246 246 246 246 248 249 249 248 247 246 245 245 245 246 247 247 247 248 249 249 250 252 254 255 256 256 257 258 259 259 260 261 262 263 264 264 265 265 266 267 267 267 267 267 267 268 269 270 270 270 269 269 269 269 269 269 268 268 267 267 267 268 268
245 246 247 248 249 249 248 248 249 251 251 250 248 248 248 249 251 252 252 251 248 246 248 250 248 247 248 249 250 249 249 248 246 245 245 245 245 246 247 248 249 250 252 253 255 256 257 258 258 258 259 259 260 261 261 263 264 265 265 265 265 266 267 267 268 267 267 268 269 269 269 269 269 269 269 269 268 268 267 266 266 266 267 267 267
244 245 246 247 248 247 247 247 248 249 250 249 249 249 248 248 249 251 252 251 249 247 248 251 251 249 248 249 250 251 250 249 248 246 245 244 244 245 246 248 249 250 252 253 255 256 257 258 259 259 259 260 260 261 261 263 263 263 264 264 265 265 265 266 267 267 267 268 268 269 269 269 268 269 269 268 268 267 267 266 265 265 265 266 266
243 244 245 246 247 247 246 246 247 249 250 249 249 249 249 248 248 248 250 250 250 249 248 248 250 251 250 249 250 250 250 249 248 247 246 244 244 245 247 249 250 251 253 254 255 255 256 258 259 260 260 260 260 261 262 262 262 263 263 263 263 264 264 265 266 267 267 267 268 268 268 269 269 268 268 268 268 268 267 266 265 264 264 265 265
242 243 243 245 246 246 246 245 246 248 249 249 248 249 250 250 249 248 248 249 250 251 249 247 248 250 251 251 251 250 249 248 247 247 246 245 245 246 248 249 251 253 254 255 255 255 256 257 258 259 260 260 261 261 261 261 262 262 262 262 262 263 263 264 265 267 267 267 267 268 268 269 269 269 268 268 268 268 267 266 264 263 264 264 264
241 242 243 244 245 245 245 245 246 246 247 248 248 248 249 250 251 249 248 248 249 250 250 248 248 248 249 250 251 250 249 248 247 246 246 246 246 246 247 249 251 253 254 255 255 256 256 257 258 259 260 260 261 261 261 261 262 262 262 262 262 262 262 263 264 266 267 267 267 267 268 269 270 269 269 269 269 269 267 265 263 263 264 265 265
241 241 242 242 243 244 244 245 245 246 246 247 248 248 248 250 251 251 249 248 248 249 249 249 249 249 249 249 250 250 250 250 249 247 247 247 248 248 249 250 251 253 255 256 256 256 257 258 259 259 260 261 261 262 262 262 262 262 261 261 262 262 263 263 264 266 267 267 267 267 268 269 269 269 269 270 269 268 267 265 263 263 264 266 266
240 241 241 241 242 244 244 244 244 245 246 246 247 248 248 249 250 251 250 249 248 248 249 249 250 251 251 250 249 249 250 251 251 250 250 250 250 250 251 252 253 254 256 257 257 258 258 259 259 260 261 261 261 262 262 262 263 262 262 262 261 262 262 263 263 265 266 267 267 267 267 267 267 268 269 269 269 268 266 265 264 264 264 265 265
240 241 241 241 241 243 244 244 244 245 245 245 246 247 248 249 249 249 250 250 249 248 249 250 251 252 252 251 251 250 250 252 253 253 253 253 253 253 253 254 255 256 257 258 259 260 260 260 260 260 261 261 262 262 263 263 263 263 262 262 261 261 262 262 263 264 265 266 266 266 266 266 267 268 269 269 268 266 265 265 265 265 265 264 262
241 241 241 241 241 242 243 244 244 245 245 245 245 246 247 247 248 248 249 249 249 249 250 251 251 251 251 251 252 251 251 252 253 254 255 255 255 256 256 257 258 258 259 260 261 261 262 261 261 260 261 262 263 264 264 264 264 263 262 261 261 260 261 262 262 262 264 265 265 265 265 266 267 268 268 267 266 265 264 264 265 265 264 262 258
241 241 241 241 241 242 242 243 243 244 244 245 245 245 245 245 246 248 248 249 250 250 249 250 250 250 250 251 252 251 251 252 253 255 256 257 257 258 258 259 260 261 262 262 263 263 263 262 261 261 262 263 265 266 266 266 266 265 264 263 261 260 259 260 261 262 263 264 264 264 265 266 267 267 267 266 266 264 263 264 264 264 262 260 258
241 241 241 241 241 242 242 242 242 243 243 244 244 245 244 244 246 247 248 249 250 250 249 250 250 250 250 250 251 251 251 252 253 254 256 257 258 259 260 260 261 262 263 264 265 265 265 263 263 264 265 265 266 267 268 268 268 268 267 266 263 260 259 261 262 263 263 264 264 264 265 266 266 266 266 266 266 263 262 262 262 261 259 259 259
240 240 241 241 241 242 242 242 242 242 242 242 243 244 244 244 245 247 247 248 249 249 249 249 250 250 249 249 250 251 252 252 253 254 255 256 258 260 261 262 262 262 263 264 265 265 265 265 265 266 265 265 266 267 268 268 269 269 269 268 266 264 264 265 265 264 264 264 264 263 263 263 264 264 265 265 264 261 259 258 258 258 257 257 257
238 239 239 240 241 242 242 242 242 241 241 241 242 243 243 244 245 246 247 247 247 248 248 248 249 250 249 248 249 251 252 252 253 254 254 255 257 259 261 262 263 263 264 264 264 264 265 266 266 266 265 265 267 268 268 268 268 269 269 268 267 267 266 266 265 264 263 263 263 262 261 261 262 264 264 263 260 256 254 255 256 256 255 255 255
237 238 239 240 240 241 242 242 241 241 241 241 241 241 242 243 244 245 246 246 246 246 246 247 248 249 248 248 248 250 250 251 252 253 253 254 255 257 259 261 262 263 263 263 263 263 264 265 266 266 266 266 267 267 267 267 267 267 267 267 267 267 266 265 264 263 262 260 261 261 259 259 262 265 263 257 252 251 252 253 253 252 252 253 256
236 237 238 239 240 241 241 241 241 240 239 239 239 239 240 241 242 243 244 244 244 245 245 245 246 247 247 247 248 249 249 250 250 252 253 253 254 255 256 258 260 262 263 264 264 264 264 264 266 267 268 268 267 267 267 267 265 265 265 266 266 266 266 264 262 260 259 258 258 257 257 259 263 262 255 248 248 252 254 254 253 253 255 259 261
236 237 237 238 239 240 240 240 240 239 239 238 238 237 238 238 239 240 241 242 242 243 243 243 244 245 246 246 246 247 248 248 249 250 252 253 253 254 255 257 259 261 263 265 265 265 265 266 267 268 268 269 270 269 268 267 265 264 264 264 264 264 263 261 258 257 256 255 255 254 255 258 260 255 249 248 253 256 256 256 258 259 260 261 263
234 235 236 237 238 238 238 238 238 238 238 238 237 237 237 237 238 238 239 240 241 241 242 243 243 244 245 245 245 246 247 248 249 249 251 253 254 254 255 257 259 261 263 264 264 265 265 266 266 266 268 270 273 273 270 266 264 264 264 263 263 262 260 257 255 254 253 252 252 253 254 257 257 252 249 252 256 256 256 258 261 261 261 262 263